This is the latest recevied weather packets stored in our database for station/object E24QND-2. If no packets are shown the sender has not sent any weather packets the latest 10 day(s).
| Time | Temp. | Humidity | Pressure | Rain* | Wind** | Luminosity | Snow |
|---|---|---|---|---|---|---|---|
| 1777794466 | 37.78° C | 1% | - | - | - | 0 W/m² | - |
| 1777793241 | 37.78° C | 1% | - | - | - | 0 W/m² | - |
| 1777792017 | 38.33° C | 1% | - | - | - | 0 W/m² | - |
| 1777790792 | 38.33° C | 1% | - | - | - | 0 W/m² | - |
| 1777789568 | 37.78° C | 1% | - | - | - | 0 W/m² | - |
| 1777788343 | 37.78° C | 11% | - | - | - | 0 W/m² | - |
| 1777787119 | 37.78° C | 13% | - | - | - | 0 W/m² | - |
| 1777785894 | 36.67° C | 7% | - | - | - | 0 W/m² | - |
| 1777784669 | 37.22° C | 32% | - | - | - | 0 W/m² | - |
| 1777783445 | 36.67° C | 40% | - | - | - | 0 W/m² | - |
| 1777782220 | 36.67° C | 46% | - | - | - | 0 W/m² | - |
| 1777780996 | 36.67° C | 45% | - | - | - | 0 W/m² | - |
| 1777779771 | 35.56° C | 55% | - | - | - | 0 W/m² | - |
| 1777778546 | 35° C | 62% | - | - | - | 0 W/m² | - |
| 1777777322 | 35.56° C | 69% | - | - | - | 0 W/m² | - |
| 1777776097 | 33.89° C | 99% | - | - | - | 0 W/m² | - |
| 1777774873 | 32.78° C | 99% | - | - | - | 0 W/m² | - |
| 1777773648 | 32.22° C | 99% | - | - | - | 0 W/m² | - |
| 1777772424 | 31.67° C | 99% | - | - | - | 0 W/m² | - |
| 1777771199 | 30.56° C | 99% | - | - | - | 0 W/m² | - |
| 1777769975 | 31.11° C | 99% | - | - | - | 0 W/m² | - |
| 1777768750 | 30.56° C | 99% | - | - | - | 0 W/m² | - |
| 1777767525 | 29.44° C | 99% | - | - | - | 0 W/m² | - |
| 1777766301 | 27.78° C | 99% | - | - | - | 0 W/m² | - |
| 1777765076 | 27.78° C | 1% | - | - | - | 0 W/m² | - |
* Rain since midnight (hover to see other rain measurements)
** Current wind speed in m/s (hover to see current wind gust speed)